Location: Unspecified
(47.6578°N, 23.5640°E)
Time: 18:45:19
(UTC+03:00)

N. Korean satellite - Visible Passes

Search period start: 26 September 2020 00:00
Search period end: 06 October 2020 00:00
Orbit: 455 x 503 km, 97.2° (Epoch: 26 September)

Date Brightness Start Highest point End Pass type
(mag) Time Alt. Az. Time Alt. Az. Time Alt. Az.
26 Sep 9.3 06:20:21 10° NE 06:23:21 24° E 06:26:18 10° SSE visible
27 Sep 10.1 05:55:29 10° ENE 05:57:05 12° E 05:58:40 10° ESE visible
29 Sep 8.5 06:35:20 10° NNE 06:38:41 35° E 06:41:58 10° SSE visible
30 Sep 9.7 06:09:55 10° NE 06:12:29 18° E 06:14:59 10° SE visible
02 Oct 7.5 06:50:25 10° NNE 06:53:57 54° E 06:57:25 10° S visible
03 Oct 9.1 06:24:43 10° NE 06:27:48 26° E 06:30:49 10° SSE visible
04 Oct 9.9 05:59:39 10° ENE 06:01:31 14° E 06:03:24 10° ESE visible
